Weather History for KIDP - September, 2012

Change the Weather History Date:

Tuesday, September 25, 2012

  Actual Average (KCFV) Record (KCFV)
Temperature  
Mean Temperature 80 °F -  
Max Temperature 91 °F 77 °F 95 °F (2012)
Min Temperature 69 °F 52 °F 37 °F (2001)
Cooling Degree Days 15    
Growing Degree Days 30 (Base 50)    
Moisture  
Dew Point 58 °F    
Average Humidity 50    
Maximum Humidity 68    
Minimum Humidity 31    
Precipitation  
Precipitation 0.00 in - - ()
Sea Level Pressure  
Sea Level Pressure 29.82 in    
Wind  
Wind Speed 13 mph (SSW)    
Max Wind Speed 23 mph    
Max Gust Speed 28 mph    
Visibility 10 miles    
Events      
Averages and records for this station are not official NWS values.
T = Trace of Precipitation, MM = Missing Value Source: NWS Daily Summary

Daily Weather History Graph

Daily Weather History Graph

Search for Another Location

Airport or City:

Trip Planner

Search our weather history database for the weather conditions in past years. The results will help you decide how hot, cold, wet, or windy it might be!

Date:

Astronomy

Sep. 25, 2012 Rise Set
Actual Time 7:13 AM CDT 7:14 PM CDT
Civil Twilight 6:47 AM CDT 7:40 PM CDT
Nautical Twilight 6:17 AM CDT 8:10 PM CDT
Astronomical Twilight 5:47 AM CDT 8:41 PM CDT
Moon 4:35 PM CDT (9/25) 2:42 AM CDT (9/25)
Length of Visible Light 12h 52m
Length of Day
12h 00m
Waxing Gibbous, 80% of the Moon is Illuminated
Sep 25
Waxing Gibbous
Sep 29
Full
Oct 8
Last Quarter
Oct 15
New
Oct 21
First Quarter

Hourly Weather History & Observations

Time (CDT) Temp. Heat Index Dew Point Humidity Pressure Visibility Wind Dir Wind Speed Gust Speed Precip Events Conditions
12:15 AM 75.2 °F - 62.6 °F 65% 29.85 in 10.0 mi South 12.7 mph - N/A   Clear
12:35 AM 75.2 °F - 62.6 °F 65% 29.84 in 10.0 mi South 11.5 mph 17.3 mph N/A   Clear
12:55 AM 73.4 °F - 60.8 °F 65% 29.84 in 10.0 mi South 12.7 mph 18.4 mph N/A   Clear
1:15 AM 73.4 °F - 60.8 °F 65% 29.84 in 10.0 mi South 12.7 mph - N/A   Clear
1:35 AM 73.4 °F - 60.8 °F 65% 29.84 in 10.0 mi South 11.5 mph - N/A   Clear
1:55 AM 73.4 °F - 60.8 °F 65% 29.84 in 10.0 mi South 11.5 mph 16.1 mph N/A   Clear
2:15 AM 73.4 °F - 59.0 °F 61% 29.84 in 10.0 mi South 12.7 mph - N/A   Clear
2:35 AM 73.4 °F - 57.2 °F 57% 29.84 in 10.0 mi South 11.5 mph - N/A   Clear
2:55 AM 73.4 °F - 55.4 °F 53% 29.84 in 10.0 mi South 13.8 mph - N/A   Clear
3:15 AM 73.4 °F - 55.4 °F 53% 29.84 in 10.0 mi South 12.7 mph - N/A   Clear
3:35 AM 73.4 °F - 55.4 °F 53% 29.83 in 10.0 mi South 12.7 mph - N/A   Clear
3:55 AM 73.4 °F - 55.4 °F 53% 29.83 in 10.0 mi South 11.5 mph - N/A   Clear
4:15 AM 73.4 °F - 55.4 °F 53% 29.83 in 10.0 mi SSW 11.5 mph - N/A   Clear
4:35 AM 71.6 °F - 55.4 °F 57% 29.83 in 10.0 mi South 9.2 mph - N/A   Clear
5:15 AM 71.6 °F - 55.4 °F 57% 29.83 in 10.0 mi South 8.1 mph - N/A   Clear
5:35 AM 69.8 °F - 57.2 °F 64% 29.83 in 10.0 mi South 8.1 mph - N/A   Clear
5:55 AM 69.8 °F - 57.2 °F 64% 29.83 in 10.0 mi South 9.2 mph - N/A   Clear
6:15 AM 69.8 °F - 57.2 °F 64% 29.83 in 10.0 mi South 9.2 mph - N/A   Clear
6:35 AM 69.8 °F - 57.2 °F 64% 29.83 in 10.0 mi South 11.5 mph - N/A   Clear
6:55 AM 71.6 °F - 57.2 °F 60% 29.83 in 10.0 mi South 12.7 mph - N/A   Clear
7:15 AM 71.6 °F - 59.0 °F 64% 29.84 in 10.0 mi SSW 10.4 mph - N/A   Clear
7:35 AM 71.6 °F - 59.0 °F 64% 29.84 in 10.0 mi SSW 10.4 mph 16.1 mph N/A   Clear
7:55 AM 73.4 °F - 59.0 °F 61% 29.84 in 10.0 mi South 11.5 mph - N/A   Clear
8:15 AM 73.4 °F - 59.0 °F 61% 29.85 in 10.0 mi South 12.7 mph - N/A   Clear
8:35 AM 73.4 °F - 59.0 °F 61% 29.85 in 10.0 mi SSW 15.0 mph - N/A   Clear
8:55 AM 77.0 °F - 60.8 °F 57% 29.86 in 10.0 mi SSW 12.7 mph - N/A   Clear
9:15 AM 77.0 °F - 60.8 °F 57% 29.86 in 10.0 mi SSW 13.8 mph 19.6 mph N/A   Clear
9:35 AM 78.8 °F - 60.8 °F 54% 29.86 in 10.0 mi SSW 12.7 mph 21.9 mph N/A   Clear
9:55 AM 78.8 °F - 60.8 °F 54% 29.86 in 10.0 mi SSW 13.8 mph - N/A   Clear
10:15 AM 80.6 °F 81.5 °F 60.8 °F 51% 29.86 in 10.0 mi SSW 23.0 mph 27.6 mph N/A   Clear
10:35 AM 80.6 °F 81.5 °F 60.8 °F 51% 29.86 in 10.0 mi SW 17.3 mph 23.0 mph N/A   Clear
10:55 AM 80.6 °F 81.5 °F 60.8 °F 51% 29.86 in 10.0 mi SW 20.7 mph 26.5 mph N/A   Clear
11:15 AM 82.4 °F 82.9 °F 60.8 °F 48% 29.86 in 10.0 mi SW 20.7 mph 25.3 mph N/A   Clear
11:35 AM 84.2 °F 83.8 °F 59.0 °F 42% 29.85 in 10.0 mi SW 19.6 mph 26.5 mph N/A   Clear
11:55 AM 86.0 °F 85.4 °F 59.0 °F 40% 29.85 in 10.0 mi SW 19.6 mph 26.5 mph N/A   Clear
12:15 PM 86.0 °F 85.4 °F 59.0 °F 40% 29.85 in 10.0 mi SW 17.3 mph - N/A   Clear
12:35 PM 87.8 °F 87.1 °F 59.0 °F 38% 29.85 in 10.0 mi WSW 12.7 mph 24.2 mph N/A   Clear
12:55 PM 87.8 °F 87.1 °F 59.0 °F 38% 29.84 in 10.0 mi SW 17.3 mph 24.2 mph N/A   Clear
1:15 PM 89.6 °F 88.9 °F 59.0 °F 36% 29.82 in 10.0 mi WSW 16.1 mph - N/A   Clear
2:15 PM 87.8 °F 87.1 °F 59.0 °F 38% 29.80 in 10.0 mi SW 13.8 mph - N/A   Clear
2:35 PM 87.8 °F 87.1 °F 59.0 °F 38% 29.79 in 10.0 mi SSW 10.4 mph - N/A   Clear
2:55 PM 89.6 °F 88.9 °F 59.0 °F 36% 29.79 in 10.0 mi SW 16.1 mph 20.7 mph N/A   Clear
3:15 PM 91.4 °F 90.7 °F 59.0 °F 34% 29.78 in 10.0 mi SSW 13.8 mph 17.3 mph N/A   Clear
3:35 PM 91.4 °F 90.7 °F 59.0 °F 34% 29.78 in 10.0 mi SW 13.8 mph - N/A   Scattered Clouds
3:55 PM 91.4 °F 90.7 °F 59.0 °F 34% 29.78 in 10.0 mi SSW 19.6 mph 25.3 mph N/A   Scattered Clouds
4:15 PM 89.6 °F 88.1 °F 57.2 °F 33% 29.78 in 10.0 mi South 13.8 mph 23.0 mph N/A   Clear
4:35 PM 91.4 °F 89.9 °F 57.2 °F 31% 29.78 in 10.0 mi South 20.7 mph 25.3 mph N/A   Clear
4:55 PM 89.6 °F 87.7 °F 55.4 °F 31% 29.78 in 10.0 mi South 13.8 mph 24.2 mph N/A   Clear
5:15 PM 89.6 °F 87.7 °F 55.4 °F 31% 29.78 in 10.0 mi SSW 17.3 mph 20.7 mph N/A   Clear
5:35 PM 89.6 °F 87.7 °F 55.4 °F 31% 29.78 in 10.0 mi South 20.7 mph 25.3 mph N/A   Clear
5:55 PM 89.6 °F 87.7 °F 55.4 °F 31% 29.77 in 10.0 mi SSW 15.0 mph 23.0 mph N/A   Clear
6:15 PM 89.6 °F 87.7 °F 55.4 °F 31% 29.76 in 10.0 mi SSW 15.0 mph - N/A   Clear
6:35 PM 87.8 °F 86.1 °F 55.4 °F 33% 29.76 in 10.0 mi South 12.7 mph - N/A   Clear
6:55 PM 87.8 °F 86.5 °F 57.2 °F 35% 29.77 in 10.0 mi SSW 9.2 mph - N/A   Clear
7:15 PM 86.0 °F 84.9 °F 57.2 °F 37% 29.76 in 10.0 mi South 10.4 mph - N/A   Scattered Clouds
7:55 PM 84.2 °F 83.8 °F 59.0 °F 42% 29.76 in 10.0 mi South 12.7 mph 16.1 mph N/A   Clear
8:15 PM 82.4 °F 82.5 °F 59.0 °F 45% 29.76 in 10.0 mi South 11.5 mph - N/A   Clear
8:35 PM 82.4 °F 82.0 °F 57.2 °F 42% 29.78 in 10.0 mi South 12.7 mph - N/A   Clear
8:55 PM 82.4 °F 81.7 °F 55.4 °F 39% 29.81 in 10.0 mi South 5.8 mph - N/A   Clear
9:35 PM 73.4 °F - 60.8 °F 65% 29.85 in 10.0 mi ENE 4.6 mph - N/A   Clear
9:55 PM 73.4 °F - 60.8 °F 65% 29.86 in 10.0 mi ENE 6.9 mph - N/A   Clear
10:15 PM 73.4 °F - 59.0 °F 61% 29.86 in 10.0 mi ENE 8.1 mph - N/A   Scattered Clouds
10:55 PM 71.6 °F - 59.0 °F 64% 29.82 in 10.0 mi ESE 13.8 mph - N/A   Clear
11:35 PM 69.8 °F - 59.0 °F 68% 29.83 in 10.0 mi ESE 12.7 mph - N/A   Clear